• Processing (Info)

  • MPEC 2013-T105: 2013 TH135

    The following Minor Planet Electronic Circular may be linked-to from your own Web pages, but must not otherwise be redistributed electronically.

    A form allowing access to any MPEC is at the bottom of this page.


    Read MPEC 2013-T104 Read MPEC 2013-T106


    M.P.E.C. 2013-T105                               Issued 2013 Oct. 14, 13:19 UT
    
         The Minor Planet Electronic Circulars contain information on unusual
             minor planets and routine data on comets.  They are published
       on behalf of Commission 20 of the International Astronomical Union by the
              Minor Planet Center, Smithsonian Astrophysical Observatory,
                              Cambridge, MA 02138, U.S.A.
    
                 Prepared using the Tamkin Foundation Computer Network
    
                                  MPC@CFA.HARVARD.EDU
                URL https://www.minorplanetcenter.net/    ISSN 1523-6714
    
                                      2013 TH135
    
    Observations:
         K13TD5H* C2013 10 12.31254 01 48 12.70 -18 14 13.6          19.7 VqET105703
         K13TD5H  C2013 10 12.31748 01 48 12.66 -18 14 08.6          19.8 VqET105703
         K13TD5H  C2013 10 12.32253 01 48 12.68 -18 14 01.0          19.3 VqET105703
         K13TD5H  C2013 10 12.32760 01 48 12.57 -18 13 53.0          20.1 VqET105703
         K13TD5H KC2013 10 12.51900 01 48 13.89 -18 09 10.4          19.7 VqET105E23
         K13TD5H KC2013 10 12.52942 01 48 13.82 -18 08 57.9          19.5 VqET105E23
         K13TD5H KC2013 10 12.53984 01 48 13.74 -18 08 43.6          19.2 VqET105E23
         K13TD5H KC2013 10 13.24865 01 48 15.04 -17 53 30.9          19.3 RoET105291
         K13TD5H KC2013 10 13.25166 01 48 15.00 -17 53 27.2          19.4 RoET105291
         K13TD5H KC2013 10 13.25467 01 48 14.99 -17 53 22.2          19.5 RoET105291
         K13TD5H KC2013 10 13.28722401 48 14.03 -17 52 41.7          20.1 VuET105H21
         K13TD5H KC2013 10 13.29699701 48 13.94 -17 52 28.5          20.1 VuET105H21
         K13TD5H |C2013 10 13.32218 01 48 13.21 -17 51 23.3          19.9 VuET105807
         K13TD5H |C2013 10 13.32404 01 48 13.19 -17 51 20.7          20.0 VuET105807
         K13TD5H |C2013 10 13.32590 01 48 13.18 -17 51 18.1          19.5 VuET105807
         K13TD5H |C2013 10 13.32775 01 48 13.18 -17 51 15.5          19.9 VuET105807
         K13TD5H |C2013 10 13.32959 01 48 13.16 -17 51 13.0          19.9 VuET105807
         K13TD5H KC2013 10 13.33448 01 48 13.76 -17 51 38.4          19.5 RqET105H36
         K13TD5H KC2013 10 13.35393 01 48 13.66 -17 51 11.5          20.4 RqET105H36
         K13TD5H KC2013 10 14.23708801 48 15.15 -17 31 18.7          19.7 VrET105H21
         K13TD5H KC2013 10 14.24385201 48 15.12 -17 31 09.2          19.8 VrET105H21
         K13TD5H KC2013 10 14.24985401 48 15.09 -17 31 02.2          19.8 VrET105H21
    
    Observer details:
    291 LPL/Spacewatch II.  Observer T. H. Bressi.  1.8-m f/2.7 reflector + CCD.
    703 Catalina Sky Survey.  Observer R. E. Hill.  Measurers A. Boattini,
        E. J. Christensen, A. R. Gibbs, A. D. Grauer, R. E. Hill, J. A. Johnson,
        R. A. Kowalski, S. M. Larson, F. C. Shelly.  0.68-m Schmidt + CCD.
    807 Cerro Tololo.  Observers T. Linder, R. Holmes.  Measurers T. Linder,
        R. Holmes, K. Baker, S. Momaly.  0.41-m f/11 Ritchey-Chretien + CCD.
    E23 Arcadia.  Observer A. Hidas.  0.35-m Schmidt-Cassegrain + CCD.
    H21 Astronomical Research Observatory, Westfield.  Observer R. Holmes.
        Measurers T. Linder, S. Foglia, L. Buzzi, T. Vorobjov, H. Devore,
        A. Kostin, T. Lister. T.  0.61-m f/4.0 astrograph + CCD, 0.61-m f/4.5
        astrograph + CCD.
    H36 Sandlot Observatory, Scranton.  Observer G. Hug.  0.56-m reflector + CCD.
    
    Orbital elements:
    2013 TH135                                               Earth MOID = 0.2641 AU
    Epoch 2013 Nov. 4.0 TT = JDT 2456600.5                  MPC
    M  15.87250              (2000.0)            P               Q
    n   0.30132832     Peri.  265.93715     +0.98636885     +0.11620357
    a   2.2034815      Node    87.36193     -0.06049509     +0.91452186
    e   0.4388973      Incl.    6.69752     -0.15302561     +0.38748741
    P   3.27           H   20.9           G   0.15           U   8
    Residuals in seconds of arc
    131012 703  0.5-  0.3+    131013 291  0.2-  0.5-    131013 807  0.1+  0.1-
    131012 703  0.5-  1.2-    131013 291  0.0   0.5+    131013 H36  0.9-  0.3-
    131012 703  0.4+  0.3-    131013 H21  0.2+  0.3+    131013 H36  0.1-  0.2+
    131012 703  0.5-  1.1+    131013 H21  0.1+  0.3+    131014 H21  0.3-  0.1+
    131012 E23  0.5+  0.4+    131013 807  0.0   0.2-    131014 H21  0.2+  0.4+
    131012 E23  0.7+  0.6-    131013 807  0.1-  0.2-    131014 H21  0.5+  0.7-
    131012 E23  0.7+  0.1+    131013 807  0.0   0.1-
    131013 291  0.0   0.3-    131013 807  0.2+  0.1-
    
    Ephemeris:
    2013 TH135               a,e,i = 2.20, 0.44, 7                   q = 1.2364
    Date    TT    R. A. (2000) Decl.     Delta      r     Elong.  Phase     V
    2013 09 14    01 30 33.4 -25 00 03   0.2736  1.2365   143.4    29.0    19.8
    ...
    2013 09 29    01 44 57.3 -22 21 35   0.2800  1.2481   148.0    25.2    19.8
    ...
    2013 10 07    01 47 40.0 -20 03 50   0.2910  1.2618   150.9    22.7    19.8
    ...
    2013 10 13    01 48 13.9 -17 58 43   0.3033  1.2753   152.9    20.9    19.9
    2013 10 14    01 48 14.9 -17 36 18   0.3057  1.2778   153.1    20.6    19.9
    2013 10 15    01 48 14.9 -17 13 30   0.3083  1.2803   153.4    20.4    19.9
    ...
    2013 10 21    01 48 02.2 -14 49 48   0.3258  1.2972   154.5    19.3    20.0
    ...
    2013 10 29    01 47 41.9 -11 25 44   0.3559  1.3234   154.4    18.9    20.2
    ...
    2013 11 13    01 49 33.0 -04 56 57   0.4354  1.3820   149.3    21.4    20.8
    
    A. U. Tomatic                (C) Copyright 2013 MPC           M.P.E.C. 2013-T105
    

    Read MPEC 2013-T104 Read MPEC 2013-T106


    MPEC number:

    Enter an MPEC number in one of the following forms:

    • 1997-B01 (the full form)
    • J97B01 (the packed version of the full form)
    • B01 (the abbreviated form)